OAS1662 LEMD-EFHK

Flight info

Callsign OAS1662
Flight time N/A
Altitude 38000
Route SIE N858 DGO L176 LUSEM DCT LULUT DCT ADABI DCT BOKNO UN858 VANAD UN874 BAMES UT191 PODEM UN873 BAZOS DCT BELDI/N0449F370 DCT VICOT DCT AMRAK DCT ASTOS Z451 ROXEN DCT ALAMI DCT OKEVU DCT EVADI Y370 DIVAM
Aircraft A320/M-SDE3FGHIRWY/LB1

Departure

Time N/A
Airport Adolfo Suárez Madrid–Barajas Airport (LEMD)

Arrival

Time 2026-04-26 19:17
Airport Helsinki Vantaa Airport (EFHK)
Time Latitude Longitude Altitude Speed Heading
2026-04-26 18:48 58.83135 20.22959 38092 ft 447 kts 51°
2026-04-26 18:49 58.86404 20.33187 38081 ft 448 kts 51°
2026-04-26 18:49 58.89663 20.43453 38075 ft 448 kts 51°
2026-04-26 18:50 58.92374 20.51999 38072 ft 448 kts 51°
2026-04-26 18:50 58.95632 20.62294 38069 ft 449 kts 51°
2026-04-26 18:51 58.98877 20.72631 38066 ft 449 kts 52°
2026-04-26 18:51 59.02106 20.83000 38062 ft 449 kts 52°
2026-04-26 18:52 59.05336 20.93396 38067 ft 450 kts 52°
2026-04-26 18:52 59.08598 21.03769 38059 ft 449 kts 51°
2026-04-26 18:53 59.11915 21.14045 38057 ft 448 kts 51°
2026-04-26 18:53 59.15277 21.24276 38050 ft 449 kts 51°
2026-04-26 18:54 59.16967 21.29411 37881 ft 450 kts 51°
2026-04-26 18:54 59.18650 21.34531 37626 ft 448 kts 50°
2026-04-26 18:54 59.20330 21.39643 37377 ft 446 kts 50°
2026-04-26 18:54 59.22005 21.44732 37126 ft 446 kts 50°
2026-04-26 18:55 59.23676 21.49821 36879 ft 445 kts 50°
2026-04-26 18:55 59.25346 21.54914 36631 ft 445 kts 50°
2026-04-26 18:55 59.26985 21.59939 36383 ft 444 kts 50°
2026-04-26 18:55 59.28659 21.65096 36134 ft 444 kts 50°
2026-04-26 18:56 59.30310 21.70200 35886 ft 444 kts 50°
2026-04-26 18:56 59.31961 21.75318 35639 ft 445 kts 50°
2026-04-26 18:56 59.33590 21.80374 35389 ft 446 kts 50°
2026-04-26 18:56 59.35247 21.85508 35135 ft 446 kts 49°
2026-04-26 18:57 59.36908 21.90659 34892 ft 447 kts 49°
2026-04-26 18:57 59.38030 21.94147 34723 ft 447 kts 49°
2026-04-26 18:57 59.40227 22.00993 34391 ft 448 kts 49°
2026-04-26 18:57 59.41887 22.06182 34138 ft 449 kts 49°
2026-04-26 18:58 59.43543 22.11377 33889 ft 449 kts 49°
2026-04-26 18:58 59.45198 22.16583 33640 ft 449 kts 49°
2026-04-26 18:58 59.46848 22.21788 33385 ft 448 kts 49°
2026-04-26 18:58 59.48496 22.26994 33140 ft 448 kts 49°
2026-04-26 18:59 59.50141 22.32203 32897 ft 448 kts 49°
2026-04-26 18:59 59.51780 22.37401 32640 ft 447 kts 49°
2026-04-26 18:59 59.53422 22.42613 31920 ft 449 kts 49°
2026-04-26 18:59 59.55084 22.47885 30782 ft 455 kts 49°
2026-04-26 19:00 59.56755 22.53212 29720 ft 458 kts 48°
2026-04-26 19:00 59.58426 22.58571 28677 ft 459 kts 49°
2026-04-26 19:00 59.60100 22.63961 27509 ft 457 kts 49°
2026-04-26 19:00 59.61738 22.69280 25984 ft 450 kts 49°
2026-04-26 19:01 59.63340 22.74497 24846 ft 436 kts 49°
2026-04-26 19:01 59.64908 22.79588 24040 ft 431 kts 49°
2026-04-26 19:01 59.66467 22.84630 23203 ft 428 kts 49°
2026-04-26 19:01 59.68014 22.89625 22401 ft 424 kts 50°
2026-04-26 19:02 59.69551 22.94587 21599 ft 421 kts 50°
2026-04-26 19:02 59.71073 22.99519 20853 ft 418 kts 50°
2026-04-26 19:02 59.72578 23.04421 20126 ft 414 kts 51°
2026-04-26 19:02 59.73559 23.07636 19655 ft 411 kts 51°
2026-04-26 19:03 59.75523 23.14087 18727 ft 406 kts 52°
2026-04-26 19:03 59.76971 23.18857 18054 ft 401 kts 52°
2026-04-26 19:03 59.78404 23.23579 17426 ft 397 kts 52°
2026-04-26 19:03 59.79817 23.28244 16811 ft 392 kts 53°
2026-04-26 19:04 59.81209 23.32852 16223 ft 387 kts 53°
2026-04-26 19:04 59.82583 23.37404 15660 ft 381 kts 53°
2026-04-26 19:04 59.83936 23.41897 15104 ft 376 kts 53°
2026-04-26 19:04 59.85269 23.46336 14568 ft 371 kts 53°
2026-04-26 19:05 59.87875 23.54987 13466 ft 363 kts 53°
2026-04-26 19:05 59.89162 23.59277 12897 ft 359 kts 53°
2026-04-26 19:05 59.90433 23.63533 12304 ft 357 kts 53°
2026-04-26 19:06 59.91705 23.67799 11664 ft 357 kts 53°
2026-04-26 19:06 59.92966 23.72043 11064 ft 353 kts 54°
2026-04-26 19:06 59.94181 23.76157 10875 ft 332 kts 53°
2026-04-26 19:06 59.95296 23.79969 10675 ft 308 kts 53°
2026-04-26 19:07 59.96365 23.83608 10424 ft 302 kts 53°
2026-04-26 19:07 59.97432 23.87212 10171 ft 301 kts 53°
2026-04-26 19:07 59.98497 23.90803 9920 ft 300 kts 52°
2026-04-26 19:07 59.99560 23.94386 9751 ft 300 kts 53°
2026-04-26 19:08 60.00619 23.97970 9613 ft 299 kts 53°
2026-04-26 19:08 60.01674 24.01557 9502 ft 299 kts 53°
2026-04-26 19:08 60.02727 24.05138 9375 ft 299 kts 53°
2026-04-26 19:08 60.03778 24.08720 9251 ft 298 kts 53°
2026-04-26 19:09 60.04823 24.12297 9125 ft 297 kts 53°
2026-04-26 19:09 60.05871 24.15883 8624 ft 300 kts 53°
2026-04-26 19:09 60.06922 24.19489 8147 ft 298 kts 53°
2026-04-26 19:09 60.07952 24.23038 7800 ft 292 kts 53°
2026-04-26 19:10 60.08959 24.26522 7137 ft 286 kts 53°
2026-04-26 19:10 60.09955 24.29959 6347 ft 284 kts 53°
2026-04-26 19:10 60.10947 24.33378 5749 ft 284 kts 53°
2026-04-26 19:10 60.11942 24.36822 5205 ft 286 kts 54°
2026-04-26 19:11 60.12942 24.40278 4630 ft 287 kts 54°
2026-04-26 19:11 60.13935 24.43706 4148 ft 285 kts 54°
2026-04-26 19:11 60.14923 24.47141 3814 ft 279 kts 54°
2026-04-26 19:11 60.15873 24.50469 3745 ft 264 kts 54°
2026-04-26 19:12 60.16730 24.53501 3683 ft 235 kts 54°
2026-04-26 19:12 60.17485 24.56186 3621 ft 213 kts 53°
2026-04-26 19:12 60.18208 24.58738 3546 ft 204 kts 53°
2026-04-26 19:12 60.18898 24.61142 3461 ft 200 kts 52°
2026-04-26 19:13 60.19592 24.63548 3375 ft 198 kts 52°
2026-04-26 19:13 60.20297 24.65934 3288 ft 197 kts 48°
2026-04-26 19:13 60.21134 24.68102 3054 ft 196 kts 43°
2026-04-26 19:13 60.22043 24.70152 2800 ft 197 kts 41°
2026-04-26 19:14 60.22966 24.72177 2529 ft 193 kts 41°
2026-04-26 19:14 60.23874 24.74158 2310 ft 191 kts 42°
2026-04-26 19:14 60.24764 24.76102 2044 ft 187 kts 42°
2026-04-26 19:14 60.25356 24.77393 1867 ft 185 kts 43°
2026-04-26 19:15 60.26459 24.79803 1562 ft 168 kts 43°
2026-04-26 19:15 60.27231 24.81491 1357 ft 159 kts 43°
2026-04-26 19:15 60.27962 24.83089 1145 ft 151 kts 43°
2026-04-26 19:15 60.28646 24.84586 950 ft 140 kts 43°
2026-04-26 19:16 60.29242 24.85887 778 ft 135 kts 43°
2026-04-26 19:16 60.29871 24.87265 593 ft 133 kts 44°
2026-04-26 19:16 60.30494 24.88633 406 ft 132 kts 43°
2026-04-26 19:16 60.31110 24.89985 227 ft 130 kts 41°
2026-04-26 19:17 60.31707 24.91292 149 ft 115 kts 45°
2026-04-26 19:17 60.32063 24.92059 156 ft 41 kts 47°
2026-04-26 19:17 60.32199 24.92442 165 ft 30 kts 67°
2026-04-26 19:17 60.32251 24.92805 168 ft 24 kts 77°
2026-04-26 19:18 60.32277 24.93049 169 ft 10 kts 84°
2026-04-26 19:18 60.32242 24.93165 168 ft 11 kts 140°
2026-04-26 19:18 60.32242 24.93269 168 ft 8 kts 45°
2026-04-26 19:18 60.32307 24.93411 170 ft 19 kts 47°
2026-04-26 19:19 60.32400 24.93614 171 ft 21 kts 47°
2026-04-26 19:19 60.32504 24.93841 171 ft 23 kts 47°
2026-04-26 19:19 60.32619 24.94097 171 ft 25 kts 47°
2026-04-26 19:19 60.32734 24.94349 173 ft 24 kts 47°
2026-04-26 19:20 60.32847 24.94599 174 ft 24 kts 47°
2026-04-26 19:20 60.32912 24.94747 176 ft 15 kts 49°
2026-04-26 19:20 60.32901 24.94897 175 ft 13 kts 146°
2026-04-26 19:20 60.32789 24.94982 177 ft 19 kts 162°
2026-04-26 19:21 60.32659 24.95065 180 ft 19 kts 161°
2026-04-26 19:21 60.32526 24.95151 180 ft 21 kts 162°
2026-04-26 19:21 60.32380 24.95244 178 ft 20 kts 162°
2026-04-26 19:21 60.32275 24.95386 176 ft 20 kts 137°
2026-04-26 19:22 60.32167 24.95587 173 ft 23 kts 137°
2026-04-26 19:22 60.32048 24.95811 174 ft 23 kts 138°
2026-04-26 19:22 60.31945 24.95995 170 ft 19 kts 138°
2026-04-26 19:22 60.31865 24.96141 167 ft 12 kts 137°
2026-04-26 19:23 60.31856 24.96296 167 ft 12 kts 78°
2026-04-26 19:23 60.31906 24.96435 167 ft 13 kts 47°
2026-04-26 19:23 60.31943 24.96545 167 ft 7 kts 108°
2026-04-26 19:23 60.31911 24.96610 167 ft 2 kts 140°
2026-04-26 19:24 60.31908 24.96616 167 ft 0 kts 139°